364  
SXUS52 KCHS 150527  
OSOCHS  
 
MARINE OBSERVATIONS  
NATIONAL WEATHER SERVICE CHARLESTON SC  
100 AM EDT SUN SEP 15 2019  
   
..DOWNTOWN CHARLESTON AND HARBOR
 
 
 
CITY SKY/WX TMP DP RH WIND PRES REMARKS  
WATERFRONT PRK N/A 78 76 94 NE8 29.95F  
   
..LAKE MOULTRIE
 
 
 
CITY SKY/WX TMP DP RH WIND PRES REMARKS  
PINOPOLIS N/A 79 75 89 E6 30.06F  
   
..LAKE AND SUPPLEMENTAL COASTAL OBSERVATIONS
 
 
 
STATION/POSITION TIME TEMP WIND PRES WAVE SWELL  
AIR SEA DIR/SP/G HT/PER HT/PER/DIR  
(UTC) (F) (DEG/KT/KT) (MB) (FT/S) (FT/S/D)  
CHRLSTN HARBOR 0436 79 83 10/ 7/ 9 1019.8F  
FORT PULASKI 0436 80 83 20/ 9/ 11 1019.4F  
SAPELO ISLAND 0500 79 50/ 7 1018.0  
WINYAH BAY 0445 81 80/ 8 1019.0F  
LAKE MURRAY 0520 76 30/ 1/ 3 1020.3  
ACE BASIN NERRS 0445 76 10/ 2 1019.0F  
 
   
..C-MAN AND BUOY OBSERVATIONS
 
 
 
STATION/POSITION TIME TEMP WIND PRES WAVE SWELL  
AIR SEA DIR/SP/G HT/PER HT/PER/DIR  
(UTC) (F) (DEG/KT/KT) (MB) (FT/S) (FT/S/D)  
BUOY 41004 0510 82 50/ 16/ 17 1018.8  
BUOY 41008 0450 82 83 60/ 17/ 21 1017.4F 6/ 9 3/100/ 9  
FOLLY BEACH CMAN 0500 81 60/ 15/ 16 1019.7F  
PRITCHARDS ISLAN NOT AVBL  
CAPERS NS BUOY 0508 81 83 90/ 14/ 19 1019.8F  
FRIPP NS BUOY 0508 81 83 70/ 23/ 31 1019.4F  
5E ST. MARYS GA 0500 83 N/A 6/ 8  
 
 
STATION/POSITION TIME TEMP WIND PRES WAVE SWELL  
AIR SEA DIR/SP/G HT/PER HT/PER/DIR  
(UTC) (F) (DEG/KT/KT) (MB) (FT/S) (FT/S/D)  
FRYING PAN BUOY 0510 81 83 90/ 10/ 12 1019.5  
BUOY 41025 0510 80 78 120/ 8/ 10 1020.3  
CAPE LOOKOUT NC 0500 79 100/ 8/ 9 1020.4F  
BUOY 41002 0510 83 100/ 16/ 19 1018.8  
BUOY 41010 0510 80 82 1011.1  
ST AUGUSTINE FL 0500 83 83 50/ 21/ 23 1016.2F  
 

 
 
 
CLICK HERE TO GO TO PREVIOUS BULLETINS.

The Nexlab SC Page
The Nexlab GA Page Main Text Page